TimeCST,TemperatureF,Dew PointF,Humidity,Sea Level PressureIn,VisibilityMPH,Wind Direction,Wind SpeedMPH,Gust SpeedMPH,PrecipitationIn,Events,Conditions,WindDirDegrees,DateUTC
12:56 AM,36.0,29.1,76,30.04,10.0,NNE,4.6,-,N/A,,Clear,20,2013-02-24 06:56:00
1:56 AM,34.0,29.1,82,30.04,10.0,NNE,4.6,-,N/A,,Clear,20,2013-02-24 07:56:00
2:56 AM,32.0,29.1,89,30.04,10.0,North,3.5,-,N/A,,Clear,10,2013-02-24 08:56:00
3:56 AM,32.0,28.0,85,30.05,10.0,North,5.8,-,N/A,,Clear,10,2013-02-24 09:56:00
4:56 AM,29.1,28.0,96,30.05,10.0,Calm,Calm,-,N/A,,Clear,0,2013-02-24 10:56:00
5:56 AM,28.0,27.1,96,30.08,10.0,NNE,3.5,-,N/A,,Clear,20,2013-02-24 11:56:00
6:56 AM,28.0,28.0,100,30.09,9.0,Calm,Calm,-,N/A,,Clear,0,2013-02-24 12:56:00
7:56 AM,36.9,30.0,76,30.12,10.0,NNE,4.6,-,N/A,,Clear,30,2013-02-24 13:56:00
8:56 AM,41.9,30.0,63,30.13,10.0,ENE,5.8,-,N/A,,Clear,60,2013-02-24 14:56:00
9:56 AM,46.9,31.1,54,30.13,10.0,ENE,8.1,-,N/A,,Clear,70,2013-02-24 15:56:00
10:56 AM,50.9,31.1,47,30.13,10.0,Variable,5.8,-,N/A,,Clear,0,2013-02-24 16:56:00
11:56 AM,52.9,32.0,45,30.12,10.0,Variable,4.6,-,N/A,,Clear,0,2013-02-24 17:56:00
12:56 PM,55.9,32.0,40,30.10,10.0,ENE,8.1,-,N/A,,Clear,70,2013-02-24 18:56:00
1:56 PM,57.9,30.0,35,30.07,10.0,Variable,4.6,-,N/A,,Clear,0,2013-02-24 19:56:00
2:56 PM,59.0,29.1,32,30.06,10.0,Variable,5.8,-,N/A,,Clear,0,2013-02-24 20:56:00
3:56 PM,59.0,31.1,35,30.06,10.0,ENE,6.9,-,N/A,,Clear,60,2013-02-24 21:56:00
4:56 PM,56.8,30.0,36,30.05,10.0,NNE,4.6,-,N/A,,Clear,30,2013-02-24 22:56:00
5:56 PM,50.0,31.1,48,30.06,10.0,NNE,3.5,-,N/A,,Clear,30,2013-02-24 23:56:00
6:56 PM,45.9,32.0,58,30.06,10.0,NNE,4.6,-,N/A,,Clear,30,2013-02-25 00:56:00
7:56 PM,41.0,32.9,73,30.05,10.0,Calm,Calm,-,N/A,,Clear,0,2013-02-25 01:56:00
8:56 PM,37.9,32.0,79,30.04,10.0,Calm,Calm,-,N/A,,Clear,0,2013-02-25 02:56:00
9:56 PM,41.9,30.0,63,30.03,10.0,ENE,4.6,-,N/A,,Clear,60,2013-02-25 03:56:00
10:56 PM,41.0,30.0,65,30.01,10.0,ENE,3.5,-,N/A,,Clear,60,2013-02-25 04:56:00
11:56 PM,41.9,29.1,61,29.99,10.0,ENE,3.5,-,N/A,,Clear,60,2013-02-25 05:56:00